Time,TemperatureF,DewpointF,PressureIn,WindDirection,WindDirectionDegrees,WindSpeedMPH,WindSpeedGustMPH,Humidity,HourlyPrecipIn,Conditions,Clouds,dailyrainin,SolarRadiationWatts/m^2,SoftwareType,DateUTC
2013-06-25 00:00:00,82.7,73.6,29.93,SSE,163,4.0,10.0,74,0.00,,---,0.00,0.00,VWS V14.00,2013-06-25 05:00:00,
2013-06-25 00:03:00,82.6,73.5,29.93,SE,146,6.0,10.0,74,0.00,,---,0.00,0.00,VWS V14.00,2013-06-25 05:03:00,
2013-06-25 00:07:00,82.6,73.1,29.93,SSE,161,2.0,10.0,73,0.00,,---,0.00,0.00,VWS V14.00,2013-06-25 05:07:00,
2013-06-25 00:11:00,82.6,73.5,29.93,SSE,155,5.0,10.0,74,0.00,,---,0.00,0.00,VWS V14.00,2013-06-25 05:11:00,
2013-06-25 00:15:00,82.5,73.0,29.93,SSE,148,7.0,10.0,73,0.00,,---,0.00,0.00,VWS V14.00,2013-06-25 05:15:00,
2013-06-25 00:19:00,82.5,73.4,29.93,SSE,147,5.0,10.0,74,0.00,,---,0.00,0.00,VWS V14.00,2013-06-25 05:19:00,
2013-06-25 00:23:00,82.4,73.3,29.93,SSE,167,4.0,10.0,74,0.00,,---,0.00,0.00,VWS V14.00,2013-06-25 05:23:00,
2013-06-25 00:27:00,82.3,73.2,29.93,SSE,159,4.0,10.0,74,0.00,,---,0.00,0.00,VWS V14.00,2013-06-25 05:27:00,
2013-06-25 00:30:00,82.2,72.7,29.94,SSE,157,6.0,10.0,73,0.00,,---,0.00,0.00,VWS V14.00,2013-06-25 05:30:00,
2013-06-25 00:31:00,82.2,72.7,29.94,SSE,152,5.0,6.0,73,0.00,,---,0.00,0.00,VWS V14.00,2013-06-25 05:31:00,
2013-06-25 00:35:00,82.1,72.6,29.94,SSE,162,5.0,6.0,73,0.00,,---,0.00,0.00,VWS V14.00,2013-06-25 05:35:00,
2013-06-25 00:39:00,82.0,72.9,29.94,SSE,167,6.0,6.0,74,0.00,,---,0.00,0.00,VWS V14.00,2013-06-25 05:39:00,
2013-06-25 00:43:00,82.0,72.9,29.94,SSE,157,5.0,7.0,74,0.00,,---,0.00,0.00,VWS V14.00,2013-06-25 05:43:00,
2013-06-25 00:47:00,81.8,72.7,29.93,SSE,150,2.0,7.0,74,0.00,,---,0.00,0.00,VWS V14.00,2013-06-25 05:47:00,
2013-06-25 00:51:00,81.7,73.0,29.93,SSE,162,5.0,7.0,75,0.00,,---,0.00,0.00,VWS V14.00,2013-06-25 05:51:00,
2013-06-25 00:55:00,81.6,72.9,29.93,SSE,159,5.0,7.0,75,0.00,,---,0.00,0.00,VWS V14.00,2013-06-25 05:55:00,
2013-06-25 00:59:00,81.5,72.8,29.93,SSE,162,6.0,7.0,75,0.00,,---,0.00,0.00,VWS V14.00,2013-06-25 05:59:00,
2013-06-25 01:00:00,81.5,72.8,29.93,South,175,5.0,7.0,75,0.00,,---,0.00,0.00,VWS V14.00,2013-06-25 06:00:00,
2013-06-25 01:03:00,81.4,73.1,29.93,SSE,167,4.0,5.0,76,0.00,,---,0.00,0.00,VWS V14.00,2013-06-25 06:03:00,
2013-06-25 01:07:00,81.2,72.5,29.93,SSE,163,5.0,5.0,75,0.00,,---,0.00,0.00,VWS V14.00,2013-06-25 06:07:00,
2013-06-25 01:11:00,81.2,72.9,29.93,SSE,165,4.0,6.0,76,0.00,,---,0.00,0.00,VWS V14.00,2013-06-25 06:11:00,
2013-06-25 01:15:00,81.2,72.9,29.93,South,175,4.0,6.0,76,0.00,,---,0.00,0.00,VWS V14.00,2013-06-25 06:15:00,
2013-06-25 01:20:00,81.1,72.8,29.93,SSE,161,5.0,6.0,76,0.00,,---,0.00,0.00,VWS V14.00,2013-06-25 06:20:00,
2013-06-25 01:24:00,81.0,72.7,29.93,SSE,167,1.0,6.0,76,0.00,,---,0.00,0.00,VWS V14.00,2013-06-25 06:24:00,
2013-06-25 01:28:00,80.9,72.6,29.93,SSE,153,4.0,6.0,76,0.00,,---,0.00,0.00,VWS V14.00,2013-06-25 06:28:00,
2013-06-25 01:30:00,80.9,72.6,29.93,SSE,168,4.0,6.0,76,0.00,,---,0.00,0.00,VWS V14.00,2013-06-25 06:30:00,
2013-06-25 01:32:00,80.9,72.6,29.93,South,169,2.0,4.0,76,0.00,,---,0.00,0.00,VWS V14.00,2013-06-25 06:32:00,
2013-06-25 01:36:00,80.8,72.9,29.93,SSE,156,5.0,5.0,77,0.00,,---,0.00,0.00,VWS V14.00,2013-06-25 06:36:00,
2013-06-25 01:40:00,80.7,72.8,29.93,South,171,4.0,5.0,77,0.00,,---,0.00,0.00,VWS V14.00,2013-06-25 06:40:00,
2013-06-25 01:44:00,80.5,72.6,29.92,South,171,2.0,5.0,77,0.00,,---,0.00,0.00,VWS V14.00,2013-06-25 06:44:00,
2013-06-25 01:48:00,80.5,72.6,29.92,South,188,4.0,6.0,77,0.00,,---,0.00,0.00,VWS V14.00,2013-06-25 06:48:00,
2013-06-25 01:52:00,80.4,72.5,29.92,SSE,164,6.0,6.0,77,0.00,,---,0.00,0.00,VWS V14.00,2013-06-25 06:52:00,
2013-06-25 01:56:00,80.4,72.5,29.92,SSE,153,7.0,7.0,77,0.00,,---,0.00,0.00,VWS V14.00,2013-06-25 06:56:00,
2013-06-25 02:00:00,80.3,72.8,29.92,SSW,196,2.0,7.0,78,0.00,,---,0.00,0.00,VWS V14.00,2013-06-25 07:00:00,
2013-06-25 02:04:00,80.3,72.8,29.92,South,186,10.0,10.0,78,0.00,,---,0.00,0.00,VWS V14.00,2013-06-25 07:04:00,
2013-06-25 02:08:00,80.3,72.8,29.92,South,175,3.0,10.0,78,0.00,,---,0.00,0.00,VWS V14.00,2013-06-25 07:08:00,
2013-06-25 02:12:00,80.2,72.7,29.92,SSE,167,4.0,10.0,78,0.00,,---,0.00,0.00,VWS V14.00,2013-06-25 07:12:00,
2013-06-25 02:16:00,80.1,72.6,29.92,SSE,167,2.0,10.0,78,0.00,,---,0.00,0.00,VWS V14.00,2013-06-25 07:16:00,
2013-06-25 02:20:00,80.1,72.6,29.92,SSE,167,3.0,10.0,78,0.00,,---,0.00,0.00,VWS V14.00,2013-06-25 07:20:00,
2013-06-25 02:24:00,80.0,72.9,29.92,SSE,161,4.0,10.0,79,0.00,,---,0.00,0.00,VWS V14.00,2013-06-25 07:24:00,
2013-06-25 02:28:00,79.9,72.8,29.92,SSW,208,4.0,10.0,79,0.00,,---,0.00,0.00,VWS V14.00,2013-06-25 07:28:00,
2013-06-25 02:30:00,79.8,73.1,29.92,South,173,4.0,10.0,80,0.00,,---,0.00,0.00,VWS V14.00,2013-06-25 07:30:00,
2013-06-25 02:32:00,79.8,73.1,29.92,South,170,4.0,4.0,80,0.00,,---,0.00,0.00,VWS V14.00,2013-06-25 07:32:00,
2013-06-25 02:36:00,79.7,73.0,29.92,SSE,163,4.0,8.0,80,0.00,,---,0.00,0.00,VWS V14.00,2013-06-25 07:36:00,
2013-06-25 02:40:00,79.6,72.9,29.92,South,171,3.0,8.0,80,0.00,,---,0.00,0.00,VWS V14.00,2013-06-25 07:40:00,
2013-06-25 02:44:00,79.5,72.8,29.91,SSE,168,4.0,8.0,80,0.00,,---,0.00,0.00,VWS V14.00,2013-06-25 07:44:00,
2013-06-25 02:48:00,79.5,72.8,29.91,SSE,159,4.0,8.0,80,0.00,,---,0.00,0.00,VWS V14.00,2013-06-25 07:48:00,
2013-06-25 02:52:00,79.4,72.7,29.91,South,171,5.0,8.0,80,0.00,,---,0.00,0.00,VWS V14.00,2013-06-25 07:52:00,
2013-06-25 02:56:00,79.3,72.6,29.91,SSE,163,2.0,8.0,80,0.00,,---,0.00,0.00,VWS V14.00,2013-06-25 07:56:00,
2013-06-25 03:00:00,79.3,73.0,29.91,SSE,159,5.0,8.0,81,0.00,,---,0.00,0.00,VWS V14.00,2013-06-25 08:00:00,
2013-06-25 03:04:00,79.2,72.9,29.91,SSE,159,7.0,9.0,81,0.00,,---,0.00,0.00,VWS V14.00,2013-06-25 08:04:00,
2013-06-25 03:08:00,79.2,72.9,29.91,South,188,4.0,9.0,81,0.00,,---,0.00,0.00,VWS V14.00,2013-06-25 08:08:00,
2013-06-25 03:12:00,79.1,72.8,29.91,SSE,166,6.0,9.0,81,0.00,,---,0.00,0.00,VWS V14.00,2013-06-25 08:12:00,
2013-06-25 03:16:00,79.0,73.0,29.91,SSE,165,2.0,9.0,82,0.00,,---,0.00,0.00,VWS V14.00,2013-06-25 08:16:00,
2013-06-25 03:20:00,79.0,73.0,29.91,SSE,163,5.0,9.0,82,0.00,,---,0.00,0.00,VWS V14.00,2013-06-25 08:20:00,
2013-06-25 03:25:00,78.9,72.6,29.91,South,178,5.0,9.0,81,0.00,,---,0.00,0.00,VWS V14.00,2013-06-25 08:25:00,
2013-06-25 03:29:00,78.9,72.9,29.91,SSE,150,6.0,9.0,82,0.00,,---,0.00,0.00,VWS V14.00,2013-06-25 08:29:00,
2013-06-25 03:30:00,78.8,72.8,29.91,SSE,159,7.0,9.0,82,0.00,,---,0.00,0.00,VWS V14.00,2013-06-25 08:30:00,
2013-06-25 03:33:00,78.8,72.5,29.91,South,169,3.0,7.0,81,0.00,,---,0.00,0.00,VWS V14.00,2013-06-25 08:33:00,
2013-06-25 03:37:00,78.9,72.9,29.91,South,182,2.0,7.0,82,0.00,,---,0.00,0.00,VWS V14.00,2013-06-25 08:37:00,
2013-06-25 03:41:00,78.8,72.8,29.91,SSE,164,6.0,8.0,82,0.00,,---,0.00,0.00,VWS V14.00,2013-06-25 08:41:00,
2013-06-25 03:45:00,78.8,72.8,29.91,SSE,168,4.0,8.0,82,0.00,,---,0.00,0.00,VWS V14.00,2013-06-25 08:45:00,
2013-06-25 03:49:00,78.7,72.8,29.91,SSW,211,6.0,8.0,82,0.00,,---,0.00,0.00,VWS V14.00,2013-06-25 08:49:00,
2013-06-25 03:53:00,78.7,72.8,29.91,SSE,152,6.0,8.0,82,0.00,,---,0.00,0.00,VWS V14.00,2013-06-25 08:53:00,
2013-06-25 03:57:00,78.7,72.8,29.91,SSW,198,1.0,8.0,82,0.00,,---,0.00,0.00,VWS V14.00,2013-06-25 08:57:00,
2013-06-25 04:00:00,78.6,72.7,29.91,SSE,162,5.0,8.0,82,0.00,,---,0.00,0.00,VWS V14.00,2013-06-25 09:00:00,
2013-06-25 04:01:00,78.6,72.7,29.91,South,180,2.0,7.0,82,0.00,,---,0.00,0.00,VWS V14.00,2013-06-25 09:01:00,
2013-06-25 04:05:00,78.5,72.6,29.91,South,178,6.0,9.0,82,0.00,,---,0.00,0.00,VWS V14.00,2013-06-25 09:05:00,
2013-06-25 04:09:00,78.5,72.6,29.91,SSE,165,5.0,9.0,82,0.00,,---,0.00,0.00,VWS V14.00,2013-06-25 09:09:00,
2013-06-25 04:13:00,78.4,72.4,29.91,SSE,165,5.0,9.0,82,0.00,,---,0.00,0.00,VWS V14.00,2013-06-25 09:13:00,
2013-06-25 04:17:00,78.4,72.4,29.91,South,178,6.0,9.0,82,0.00,,---,0.00,0.00,VWS V14.00,2013-06-25 09:17:00,
2013-06-25 04:21:00,78.3,72.4,29.91,South,177,5.0,11.0,82,0.00,,---,0.00,0.00,VWS V14.00,2013-06-25 09:21:00,
2013-06-25 04:25:00,78.2,72.6,29.91,South,178,5.0,11.0,83,0.00,,---,0.00,0.00,VWS V14.00,2013-06-25 09:25:00,
2013-06-25 04:29:00,78.1,72.5,29.92,SSE,168,9.0,11.0,83,0.00,,---,0.00,0.00,VWS V14.00,2013-06-25 09:29:00,
2013-06-25 04:30:00,78.1,72.5,29.92,SSE,164,7.0,11.0,83,0.00,,---,0.00,0.00,VWS V14.00,2013-06-25 09:30:00,
2013-06-25 04:33:00,78.0,72.4,29.92,South,169,4.0,10.0,83,0.00,,---,0.00,0.00,VWS V14.00,2013-06-25 09:33:00,
2013-06-25 04:37:00,78.0,72.4,29.92,SSW,194,3.0,10.0,83,0.00,,---,0.00,0.00,VWS V14.00,2013-06-25 09:37:00,
2013-06-25 04:41:00,77.9,72.3,29.92,South,190,4.0,10.0,83,0.00,,---,0.00,0.00,VWS V14.00,2013-06-25 09:41:00,
2013-06-25 04:45:00,77.8,72.6,29.92,South,175,4.0,10.0,84,0.00,,---,0.00,0.00,VWS V14.00,2013-06-25 09:45:00,
2013-06-25 04:49:00,77.7,72.5,29.92,SSE,165,4.0,10.0,84,0.00,,---,0.00,0.00,VWS V14.00,2013-06-25 09:49:00,
2013-06-25 04:53:00,77.5,72.3,29.92,South,184,4.0,10.0,84,0.00,,---,0.00,0.00,VWS V14.00,2013-06-25 09:53:00,
2013-06-25 04:57:00,77.5,72.6,29.92,South,189,3.0,10.0,85,0.00,,---,0.00,0.00,VWS V14.00,2013-06-25 09:57:00,
2013-06-25 05:00:00,77.4,72.5,29.93,South,169,4.0,10.0,85,0.00,,---,0.00,0.00,VWS V14.00,2013-06-25 10:00:00,
2013-06-25 05:01:00,77.3,72.4,29.93,South,183,3.0,3.0,85,0.00,,---,0.00,0.00,VWS V14.00,2013-06-25 10:01:00,
2013-06-25 05:05:00,77.3,72.4,29.93,South,185,3.0,5.0,85,0.00,,---,0.00,0.00,VWS V14.00,2013-06-25 10:05:00,
2013-06-25 05:09:00,77.3,72.4,29.93,SSE,167,3.0,5.0,85,0.00,,---,0.00,0.00,VWS V14.00,2013-06-25 10:09:00,
2013-06-25 05:13:00,77.1,72.2,29.93,SSW,203,6.0,6.0,85,0.00,,---,0.00,0.00,VWS V14.00,2013-06-25 10:13:00,
2013-06-25 05:18:00,77.0,72.5,29.93,SSE,167,4.0,6.0,86,0.00,,---,0.00,0.00,VWS V14.00,2013-06-25 10:18:00,
2013-06-25 05:22:00,76.9,72.4,29.93,South,187,0.0,6.0,86,0.00,,---,0.00,0.00,VWS V14.00,2013-06-25 10:22:00,
2013-06-25 05:26:00,76.9,72.4,29.93,SSE,149,5.0,6.0,86,0.00,,---,0.00,0.00,VWS V14.00,2013-06-25 10:26:00,
2013-06-25 05:30:00,76.8,72.3,29.93,South,177,3.0,6.0,86,0.00,,---,0.00,0.00,VWS V14.00,2013-06-25 10:30:00,
2013-06-25 05:34:00,76.8,72.3,29.93,SSE,166,3.0,4.0,86,0.00,,---,0.00,0.00,VWS V14.00,2013-06-25 10:34:00,
2013-06-25 05:38:00,76.7,72.2,29.93,SSW,194,3.0,7.0,86,0.00,,---,0.00,0.00,VWS V14.00,2013-06-25 10:38:00,
2013-06-25 05:42:00,76.7,72.5,29.93,South,170,3.0,7.0,87,0.00,,---,0.00,0.00,VWS V14.00,2013-06-25 10:42:00,
2013-06-25 05:46:00,76.6,72.4,29.94,SSE,165,3.0,7.0,87,0.00,,---,0.00,0.00,VWS V14.00,2013-06-25 10:46:00,
2013-06-25 05:50:00,76.6,72.4,29.94,South,180,3.0,7.0,87,0.00,,---,0.00,0.00,VWS V14.00,2013-06-25 10:50:00,
2013-06-25 05:54:00,76.5,72.3,29.94,SSE,166,6.0,7.0,87,0.00,,---,0.00,7.00,VWS V14.00,2013-06-25 10:54:00,
2013-06-25 05:58:00,76.5,72.3,29.94,South,182,6.0,7.0,87,0.00,,---,0.00,7.00,VWS V14.00,2013-06-25 10:58:00,
2013-06-25 06:00:00,76.5,72.3,29.94,South,186,2.0,7.0,87,0.00,,---,0.00,11.00,VWS V14.00,2013-06-25 11:00:00,
2013-06-25 06:02:00,76.5,72.7,29.94,SSE,167,4.0,4.0,88,0.00,,---,0.00,12.00,VWS V14.00,2013-06-25 11:02:00,
2013-06-25 06:06:00,76.5,72.3,29.94,South,178,3.0,4.0,87,0.00,,---,0.00,16.00,VWS V14.00,2013-06-25 11:06:00,
2013-06-25 06:10:00,76.5,72.3,29.94,South,184,1.0,4.0,87,0.00,,---,0.00,18.00,VWS V14.00,2013-06-25 11:10:00,
2013-06-25 06:14:00,76.5,72.7,29.94,South,175,2.0,4.0,88,0.00,,---,0.00,21.00,VWS V14.00,2013-06-25 11:14:00,
2013-06-25 06:18:00,76.4,72.2,29.94,South,183,1.0,7.0,87,0.00,,---,0.00,25.00,VWS V14.00,2013-06-25 11:18:00,
2013-06-25 06:22:00,76.5,72.7,29.94,SSE,163,4.0,7.0,88,0.00,,---,0.00,25.00,VWS V14.00,2013-06-25 11:22:00,
2013-06-25 06:26:00,76.5,72.7,29.94,South,188,3.0,7.0,88,0.00,,---,0.00,26.00,VWS V14.00,2013-06-25 11:26:00,
2013-06-25 06:30:00,76.5,72.7,29.94,SSE,159,3.0,7.0,88,0.00,,---,0.00,32.00,VWS V14.00,2013-06-25 11:30:00,
2013-06-25 06:34:00,76.5,72.7,29.94,South,180,3.0,4.0,88,0.00,,---,0.00,32.00,VWS V14.00,2013-06-25 11:34:00,
2013-06-25 06:38:00,76.5,72.7,29.94,South,180,4.0,5.0,88,0.00,,---,0.00,39.00,VWS V14.00,2013-06-25 11:38:00,
2013-06-25 06:42:00,76.5,72.7,29.94,South,189,3.0,5.0,88,0.00,,---,0.00,42.00,VWS V14.00,2013-06-25 11:42:00,
2013-06-25 06:46:00,76.7,72.9,29.95,South,171,2.0,5.0,88,0.00,,---,0.00,44.00,VWS V14.00,2013-06-25 11:46:00,
2013-06-25 06:50:00,76.7,72.9,29.95,ESE,109,3.0,5.0,88,0.00,,---,0.00,49.00,VWS V14.00,2013-06-25 11:50:00,
2013-06-25 06:54:00,76.8,73.0,29.95,South,175,2.0,5.0,88,0.00,,---,0.00,91.00,VWS V14.00,2013-06-25 11:54:00,
2013-06-25 06:58:00,76.9,73.1,29.95,South,169,3.0,5.0,88,0.00,,---,0.00,97.00,VWS V14.00,2013-06-25 11:58:00,
2013-06-25 07:00:00,76.9,73.1,29.96,South,175,3.0,5.0,88,0.00,,---,0.00,97.00,VWS V14.00,2013-06-25 12:00:00,
2013-06-25 07:02:00,77.1,73.3,29.96,South,171,4.0,4.0,88,0.00,,---,0.00,128.00,VWS V14.00,2013-06-25 12:02:00,
2013-06-25 07:06:00,77.1,73.3,29.96,SSE,153,2.0,5.0,88,0.00,,---,0.00,139.00,VWS V14.00,2013-06-25 12:06:00,
2013-06-25 07:10:00,77.3,73.5,29.96,SE,145,4.0,6.0,88,0.00,,---,0.00,151.00,VWS V14.00,2013-06-25 12:10:00,
2013-06-25 07:15:00,77.5,73.3,29.96,SSE,157,1.0,6.0,87,0.00,,---,0.00,137.00,VWS V14.00,2013-06-25 12:15:00,
2013-06-25 07:19:00,77.6,73.4,29.96,South,177,1.0,6.0,87,0.00,,---,0.00,139.00,VWS V14.00,2013-06-25 12:19:00,
2013-06-25 07:23:00,77.8,73.3,29.96,SSE,148,5.0,6.0,86,0.00,,---,0.00,121.00,VWS V14.00,2013-06-25 12:23:00,
2013-06-25 07:27:00,77.9,73.7,29.96,SSE,167,4.0,6.0,87,0.00,,---,0.00,195.00,VWS V14.00,2013-06-25 12:27:00,
2013-06-25 07:30:00,78.1,73.6,29.97,SSE,163,4.0,6.0,86,0.00,,---,0.00,213.00,VWS V14.00,2013-06-25 12:30:00,
2013-06-25 07:31:00,78.1,73.6,29.97,South,188,3.0,4.0,86,0.00,,---,0.00,213.00,VWS V14.00,2013-06-25 12:31:00,
2013-06-25 07:35:00,78.3,73.8,29.97,SW,231,2.0,4.0,86,0.00,,---,0.00,232.00,VWS V14.00,2013-06-25 12:35:00,
2013-06-25 07:39:00,78.5,74.0,29.97,SSE,165,6.0,9.0,86,0.00,,---,0.00,287.00,VWS V14.00,2013-06-25 12:39:00,
2013-06-25 07:43:00,78.7,73.8,29.97,SSE,153,5.0,9.0,85,0.00,,---,0.00,255.00,VWS V14.00,2013-06-25 12:43:00,
2013-06-25 07:47:00,78.9,74.0,29.97,South,170,5.0,9.0,85,0.00,,---,0.00,318.00,VWS V14.00,2013-06-25 12:47:00,
2013-06-25 07:51:00,79.1,73.8,29.97,SE,138,4.0,9.0,84,0.00,,---,0.00,209.00,VWS V14.00,2013-06-25 12:51:00,
2013-06-25 07:55:00,79.2,74.3,29.97,SSE,147,6.0,9.0,85,0.00,,---,0.00,255.00,VWS V14.00,2013-06-25 12:55:00,
2013-06-25 07:59:00,79.3,73.7,29.97,SSE,147,10.0,10.0,83,0.00,,---,0.00,290.00,VWS V14.00,2013-06-25 12:59:00,
2013-06-25 08:00:00,79.3,73.7,29.97,SE,138,7.0,10.0,83,0.00,,---,0.00,227.00,VWS V14.00,2013-06-25 13:00:00,
2013-06-25 08:03:00,79.3,73.7,29.97,SSW,205,7.0,10.0,83,0.00,,---,0.00,120.00,VWS V14.00,2013-06-25 13:03:00,
2013-06-25 08:07:00,79.4,73.8,29.97,SSW,194,6.0,10.0,83,0.00,,---,0.00,148.00,VWS V14.00,2013-06-25 13:07:00,
2013-06-25 08:11:00,79.7,73.7,29.97,SSE,163,3.0,10.0,82,0.00,,---,0.00,255.00,VWS V14.00,2013-06-25 13:11:00,
2013-06-25 08:15:00,80.1,73.8,29.97,SSE,159,5.0,11.0,81,0.00,,---,0.00,243.00,VWS V14.00,2013-06-25 13:15:00,
2013-06-25 08:19:00,80.3,74.3,29.97,South,170,7.0,11.0,82,0.00,,---,0.00,192.00,VWS V14.00,2013-06-25 13:19:00,
2013-06-25 08:23:00,80.4,74.0,29.97,SSE,157,5.0,11.0,81,0.00,,---,0.00,418.00,VWS V14.00,2013-06-25 13:23:00,
2013-06-25 08:27:00,80.4,73.7,29.97,SSE,165,5.0,11.0,80,0.00,,---,0.00,244.00,VWS V14.00,2013-06-25 13:27:00,
2013-06-25 08:30:00,80.6,73.9,29.97,SW,232,3.0,11.0,80,0.00,,---,0.00,415.00,VWS V14.00,2013-06-25 13:30:00,
2013-06-25 08:31:00,80.8,74.1,29.97,SSW,197,8.0,8.0,80,0.00,,---,0.00,415.00,VWS V14.00,2013-06-25 13:31:00,
2013-06-25 08:35:00,80.7,73.2,29.97,SSW,192,7.0,13.0,78,0.00,,---,0.00,260.00,VWS V14.00,2013-06-25 13:35:00,
2013-06-25 08:39:00,80.7,73.6,29.97,SSE,161,5.0,13.0,79,0.00,,---,0.00,185.00,VWS V14.00,2013-06-25 13:39:00,
2013-06-25 08:43:00,80.7,73.6,29.97,SSE,166,3.0,13.0,79,0.00,,---,0.00,462.00,VWS V14.00,2013-06-25 13:43:00,
2013-06-25 08:47:00,81.4,73.9,29.98,SSE,147,3.0,13.0,78,0.00,,---,0.00,475.00,VWS V14.00,2013-06-25 13:47:00,
2013-06-25 08:51:00,81.4,73.9,29.98,South,169,5.0,13.0,78,0.00,,---,0.00,272.00,VWS V14.00,2013-06-25 13:51:00,
2013-06-25 08:55:00,81.7,74.2,29.98,South,173,7.0,13.0,78,0.00,,---,0.00,450.00,VWS V14.00,2013-06-25 13:55:00,
2013-06-25 08:59:00,81.9,74.4,29.97,SSE,160,7.0,13.0,78,0.00,,---,0.00,503.00,VWS V14.00,2013-06-25 13:59:00,
2013-06-25 09:00:00,82.0,74.5,29.97,SSE,155,5.0,13.0,78,0.00,,---,0.00,520.00,VWS V14.00,2013-06-25 14:00:00,
2013-06-25 09:03:00,82.3,74.0,29.97,SSE,160,12.0,12.0,76,0.00,,---,0.00,538.00,VWS V14.00,2013-06-25 14:03:00,
2013-06-25 09:07:00,82.5,74.6,29.97,SSE,165,4.0,12.0,77,0.00,,---,0.00,325.00,VWS V14.00,2013-06-25 14:07:00,
2013-06-25 09:12:00,82.3,73.6,29.97,SSE,163,10.0,12.0,75,0.00,,---,0.00,281.00,VWS V14.00,2013-06-25 14:12:00,
2013-06-25 09:16:00,82.3,74.0,29.97,South,179,6.0,12.0,76,0.00,,---,0.00,540.00,VWS V14.00,2013-06-25 14:16:00,
2013-06-25 09:20:00,83.0,74.7,29.97,SE,138,2.0,12.0,76,0.00,,---,0.00,563.00,VWS V14.00,2013-06-25 14:20:00,
2013-06-25 09:24:00,83.4,74.7,29.97,South,188,13.0,13.0,75,0.00,,---,0.00,612.00,VWS V14.00,2013-06-25 14:24:00,
2013-06-25 09:28:00,83.3,74.2,29.97,South,178,5.0,13.0,74,0.00,,---,0.00,721.00,VWS V14.00,2013-06-25 14:28:00,
2013-06-25 09:30:00,83.2,74.5,29.97,SSE,156,5.0,13.0,75,0.00,,---,0.00,675.00,VWS V14.00,2013-06-25 14:30:00,
2013-06-25 09:32:00,83.3,73.8,29.97,South,171,12.0,12.0,73,0.00,,---,0.00,675.00,VWS V14.00,2013-06-25 14:32:00,
2013-06-25 09:36:00,83.4,74.7,29.97,South,184,6.0,13.0,75,0.00,,---,0.00,689.00,VWS V14.00,2013-06-25 14:36:00,
2013-06-25 09:40:00,83.6,74.0,29.97,SSE,148,5.0,13.0,73,0.00,,---,0.00,726.00,VWS V14.00,2013-06-25 14:40:00,
2013-06-25 09:44:00,83.7,74.1,29.97,SE,143,9.0,13.0,73,0.00,,---,0.00,719.00,VWS V14.00,2013-06-25 14:44:00,
2013-06-25 09:48:00,83.6,73.6,29.96,SSE,167,7.0,14.0,72,0.00,,---,0.00,735.00,VWS V14.00,2013-06-25 14:48:00,
2013-06-25 09:52:00,83.8,74.2,29.96,SSE,152,4.0,14.0,73,0.00,,---,0.00,770.00,VWS V14.00,2013-06-25 14:52:00,
2013-06-25 09:56:00,84.5,74.5,29.96,South,176,12.0,14.0,72,0.00,,---,0.00,715.00,VWS V14.00,2013-06-25 14:56:00,
2013-06-25 10:00:00,84.6,74.6,29.96,SSE,159,5.0,14.0,72,0.00,,---,0.00,773.00,VWS V14.00,2013-06-25 15:00:00,
2013-06-25 10:04:00,84.7,74.3,29.96,South,169,10.0,14.0,71,0.00,,---,0.00,766.00,VWS V14.00,2013-06-25 15:04:00,
2013-06-25 10:08:00,84.4,73.6,29.96,SSE,165,6.0,15.0,70,0.00,,---,0.00,494.00,VWS V14.00,2013-06-25 15:08:00,
2013-06-25 10:12:00,84.2,74.2,29.96,South,188,7.0,15.0,72,0.00,,---,0.00,733.00,VWS V14.00,2013-06-25 15:12:00,
2013-06-25 10:16:00,84.8,74.4,29.95,SSW,200,4.0,15.0,71,0.00,,---,0.00,729.00,VWS V14.00,2013-06-25 15:16:00,
2013-06-25 10:20:00,84.3,73.9,29.95,SSE,155,5.0,15.0,71,0.00,,---,0.00,471.00,VWS V14.00,2013-06-25 15:20:00,
2013-06-25 10:24:00,84.4,74.4,29.95,SSE,165,9.0,15.0,72,0.00,,---,0.00,585.00,VWS V14.00,2013-06-25 15:24:00,
2013-06-25 10:28:00,85.0,75.0,29.95,South,177,1.0,15.0,72,0.00,,---,0.00,752.00,VWS V14.00,2013-06-25 15:28:00,
2013-06-25 10:30:00,85.2,74.7,29.95,South,186,7.0,15.0,71,0.00,,---,0.00,752.00,VWS V14.00,2013-06-25 15:30:00,
2013-06-25 10:32:00,85.0,73.7,29.95,South,175,5.0,7.0,69,0.00,,---,0.00,313.00,VWS V14.00,2013-06-25 15:32:00,
2013-06-25 10:36:00,85.0,74.1,29.95,SSE,150,6.0,14.0,70,0.00,,---,0.00,758.00,VWS V14.00,2013-06-25 15:36:00,
2013-06-25 10:40:00,85.4,74.5,29.95,SSE,150,12.0,14.0,70,0.00,,---,0.00,763.00,VWS V14.00,2013-06-25 15:40:00,
2013-06-25 10:44:00,85.8,74.5,29.94,South,189,9.0,14.0,69,0.00,,---,0.00,763.00,VWS V14.00,2013-06-25 15:44:00,
2013-06-25 10:48:00,86.0,74.7,29.94,South,171,7.0,14.0,69,0.00,,---,0.00,867.00,VWS V14.00,2013-06-25 15:48:00,
2013-06-25 10:52:00,86.4,74.2,29.94,South,175,7.0,14.0,67,0.00,,---,0.00,186.00,VWS V14.00,2013-06-25 15:52:00,
2013-06-25 10:56:00,85.8,74.0,29.94,SSE,157,4.0,14.0,68,0.00,,---,0.00,279.00,VWS V14.00,2013-06-25 15:56:00,
2013-06-25 11:00:00,86.5,74.2,29.95,SSE,163,5.0,14.0,67,0.00,,---,0.00,803.00,VWS V14.00,2013-06-25 16:00:00,
2013-06-25 11:01:00,86.5,74.2,29.95,SSE,161,4.0,5.0,67,0.00,,---,0.00,803.00,VWS V14.00,2013-06-25 16:01:00,
2013-06-25 11:05:00,86.7,74.9,29.95,South,169,4.0,11.0,68,0.00,,---,0.00,837.00,VWS V14.00,2013-06-25 16:05:00,
2013-06-25 11:09:00,87.2,74.0,29.95,SSE,160,5.0,11.0,65,0.00,,---,0.00,860.00,VWS V14.00,2013-06-25 16:09:00,
2013-06-25 11:13:00,87.2,74.0,29.95,SSE,157,5.0,11.0,65,0.00,,---,0.00,851.00,VWS V14.00,2013-06-25 16:13:00,
2013-06-25 11:17:00,87.2,74.0,29.95,South,184,6.0,12.0,65,0.00,,---,0.00,868.00,VWS V14.00,2013-06-25 16:17:00,
2013-06-25 11:21:00,87.0,73.8,29.95,SE,142,10.0,12.0,65,0.00,,---,0.00,884.00,VWS V14.00,2013-06-25 16:21:00,
2013-06-25 11:25:00,86.8,73.6,29.95,South,189,4.0,12.0,65,0.00,,---,0.00,884.00,VWS V14.00,2013-06-25 16:25:00,
2013-06-25 11:29:00,86.8,74.5,29.95,South,190,3.0,12.0,67,0.00,,---,0.00,881.00,VWS V14.00,2013-06-25 16:29:00,
2013-06-25 11:30:00,87.0,74.3,29.94,SSW,208,7.0,12.0,66,0.00,,---,0.00,343.00,VWS V14.00,2013-06-25 16:30:00,
2013-06-25 11:33:00,87.1,73.9,29.94,SSE,158,1.0,7.0,65,0.00,,---,0.00,343.00,VWS V14.00,2013-06-25 16:33:00,
2013-06-25 11:37:00,87.3,73.6,29.94,SSE,161,13.0,13.0,64,0.00,,---,0.00,867.00,VWS V14.00,2013-06-25 16:37:00,
2013-06-25 11:41:00,87.7,73.6,29.94,SSE,161,7.0,13.0,63,0.00,,---,0.00,886.00,VWS V14.00,2013-06-25 16:41:00,
2013-06-25 11:45:00,87.6,73.0,29.94,SSE,161,10.0,13.0,62,0.00,,---,0.00,881.00,VWS V14.00,2013-06-25 16:45:00,
2013-06-25 11:49:00,87.6,74.4,29.94,South,174,5.0,13.0,65,0.00,,---,0.00,889.00,VWS V14.00,2013-06-25 16:49:00,
2013-06-25 11:53:00,88.1,73.9,29.94,SSE,153,12.0,13.0,63,0.00,,---,0.00,919.00,VWS V14.00,2013-06-25 16:53:00,
2013-06-25 11:57:00,88.1,73.9,29.94,South,189,5.0,13.0,63,0.00,,---,0.00,900.00,VWS V14.00,2013-06-25 16:57:00,
2013-06-25 12:00:00,88.3,74.1,29.93,SE,140,6.0,13.0,63,0.00,,---,0.00,965.00,VWS V14.00,2013-06-25 17:00:00,
2013-06-25 12:01:00,88.2,74.0,29.93,SE,146,9.0,11.0,63,0.00,,---,0.00,965.00,VWS V14.00,2013-06-25 17:01:00,
2013-06-25 12:05:00,87.5,74.3,29.93,South,175,4.0,11.0,65,0.00,,---,0.00,360.00,VWS V14.00,2013-06-25 17:05:00,
2013-06-25 12:09:00,87.9,74.2,29.93,SSE,165,7.0,12.0,64,0.00,,---,0.00,933.00,VWS V14.00,2013-06-25 17:09:00,
2013-06-25 12:13:00,88.4,74.2,29.93,SSE,161,10.0,14.0,63,0.00,,---,0.00,905.00,VWS V14.00,2013-06-25 17:13:00,
2013-06-25 12:17:00,88.7,74.5,29.92,SSE,161,5.0,14.0,63,0.00,,---,0.00,285.00,VWS V14.00,2013-06-25 17:17:00,
2013-06-25 12:21:00,88.3,73.6,29.92,South,174,9.0,14.0,62,0.00,,---,0.00,585.00,VWS V14.00,2013-06-25 17:21:00,
2013-06-25 12:25:00,89.0,74.3,29.92,SSE,156,7.0,14.0,62,0.00,,---,0.00,986.00,VWS V14.00,2013-06-25 17:25:00,
2013-06-25 12:29:00,89.0,75.2,29.92,SSE,159,4.0,14.0,64,0.00,,---,0.00,949.00,VWS V14.00,2013-06-25 17:29:00,
2013-06-25 12:30:00,89.1,75.3,29.92,South,181,10.0,14.0,64,0.00,,---,0.00,949.00,VWS V14.00,2013-06-25 17:30:00,
2013-06-25 12:33:00,88.2,74.0,29.92,SSE,156,8.0,11.0,63,0.00,,---,0.00,332.00,VWS V14.00,2013-06-25 17:33:00,
2013-06-25 12:37:00,88.8,75.1,29.92,SSW,198,3.0,11.0,64,0.00,,---,0.00,1018.00,VWS V14.00,2013-06-25 17:37:00,
2013-06-25 12:41:00,89.7,73.5,29.92,ESE,119,6.0,11.0,59,0.00,,---,0.00,1004.00,VWS V14.00,2013-06-25 17:41:00,
2013-06-25 12:45:00,89.9,74.7,29.92,SSE,168,6.0,13.0,61,0.00,,---,0.00,257.00,VWS V14.00,2013-06-25 17:45:00,
2013-06-25 12:49:00,89.5,75.7,29.92,South,186,3.0,13.0,64,0.00,,---,0.00,956.00,VWS V14.00,2013-06-25 17:49:00,
2013-06-25 12:54:00,90.1,74.8,29.92,South,181,2.0,13.0,61,0.00,,---,0.00,954.00,VWS V14.00,2013-06-25 17:54:00,
2013-06-25 12:58:00,90.1,74.3,29.92,SSE,162,7.0,13.0,60,0.00,,---,0.00,914.00,VWS V14.00,2013-06-25 17:58:00,
2013-06-25 13:00:00,90.1,73.8,29.91,SSE,158,7.0,13.0,59,0.00,,---,0.00,907.00,VWS V14.00,2013-06-25 18:00:00,
2013-06-25 13:02:00,90.0,74.3,29.91,South,169,5.0,10.0,60,0.00,,---,0.00,954.00,VWS V14.00,2013-06-25 18:02:00,
2013-06-25 13:06:00,90.3,74.5,29.91,South,180,6.0,10.0,60,0.00,,---,0.00,991.00,VWS V14.00,2013-06-25 18:06:00,
2013-06-25 13:10:00,90.6,74.3,29.91,South,169,5.0,15.0,59,0.00,,---,0.00,962.00,VWS V14.00,2013-06-25 18:10:00,
2013-06-25 13:14:00,90.5,74.2,29.91,SSE,155,11.0,15.0,59,0.00,,---,0.00,954.00,VWS V14.00,2013-06-25 18:14:00,
2013-06-25 13:18:00,89.6,72.9,29.90,SSE,162,7.0,15.0,58,0.00,,---,0.00,315.00,VWS V14.00,2013-06-25 18:18:00,
2013-06-25 13:22:00,89.8,73.6,29.90,SSE,167,9.0,15.0,59,0.00,,---,0.00,315.00,VWS V14.00,2013-06-25 18:22:00,
2013-06-25 13:26:00,90.3,73.5,29.90,SSE,162,7.0,15.0,58,0.00,,---,0.00,900.00,VWS V14.00,2013-06-25 18:26:00,
2013-06-25 13:30:00,90.5,74.2,29.90,SSW,209,5.0,15.0,59,0.00,,---,0.00,881.00,VWS V14.00,2013-06-25 18:30:00,
2013-06-25 13:34:00,91.0,73.7,29.90,South,169,5.0,10.0,57,0.00,,---,0.00,886.00,VWS V14.00,2013-06-25 18:34:00,
2013-06-25 13:38:00,90.6,73.8,29.90,SSE,157,6.0,10.0,58,0.00,,---,0.00,879.00,VWS V14.00,2013-06-25 18:38:00,
2013-06-25 13:42:00,90.9,73.6,29.90,SSE,148,7.0,11.0,57,0.00,,---,0.00,884.00,VWS V14.00,2013-06-25 18:42:00,
2013-06-25 13:46:00,90.4,73.6,29.89,SSE,161,9.0,11.0,58,0.00,,---,0.00,346.00,VWS V14.00,2013-06-25 18:46:00,
2013-06-25 13:50:00,90.6,73.8,29.89,South,169,4.0,11.0,58,0.00,,---,0.00,772.00,VWS V14.00,2013-06-25 18:50:00,
2013-06-25 13:54:00,91.2,74.4,29.89,South,174,2.0,11.0,58,0.00,,---,0.00,868.00,VWS V14.00,2013-06-25 18:54:00,
2013-06-25 13:58:00,91.4,73.5,29.89,South,184,2.0,11.0,56,0.00,,---,0.00,904.00,VWS V14.00,2013-06-25 18:58:00,
2013-06-25 14:00:00,91.2,74.4,29.89,South,169,6.0,11.0,58,0.00,,---,0.00,904.00,VWS V14.00,2013-06-25 19:00:00,
2013-06-25 14:02:00,91.2,73.3,29.89,SSE,153,6.0,11.0,56,0.00,,---,0.00,904.00,VWS V14.00,2013-06-25 19:02:00,
2013-06-25 14:06:00,91.3,74.5,29.89,South,170,7.0,11.0,58,0.00,,---,0.00,846.00,VWS V14.00,2013-06-25 19:06:00,
2013-06-25 14:10:00,91.8,75.4,29.89,SSE,168,5.0,11.0,59,0.00,,---,0.00,928.00,VWS V14.00,2013-06-25 19:10:00,
2013-06-25 14:14:00,91.5,73.1,29.88,South,169,11.0,11.0,55,0.00,,---,0.00,939.00,VWS V14.00,2013-06-25 19:14:00,
2013-06-25 14:18:00,91.9,72.9,29.88,South,173,6.0,11.0,54,0.00,,---,0.00,932.00,VWS V14.00,2013-06-25 19:18:00,
2013-06-25 14:22:00,91.8,73.9,29.88,South,174,6.0,12.0,56,0.00,,---,0.00,919.00,VWS V14.00,2013-06-25 19:22:00,
2013-06-25 14:26:00,92.2,74.2,29.88,South,170,4.0,12.0,56,0.00,,---,0.00,932.00,VWS V14.00,2013-06-25 19:26:00,
2013-06-25 14:30:00,92.2,73.2,29.88,SSE,167,8.0,12.0,54,0.00,,---,0.00,872.00,VWS V14.00,2013-06-25 19:30:00,
2013-06-25 14:35:00,91.9,72.9,29.88,SSE,157,5.0,10.0,54,0.00,,---,0.00,861.00,VWS V14.00,2013-06-25 19:35:00,
2013-06-25 14:39:00,91.8,72.8,29.88,SSE,155,3.0,10.0,54,0.00,,---,0.00,923.00,VWS V14.00,2013-06-25 19:39:00,
2013-06-25 14:43:00,92.1,72.5,29.88,SE,146,6.0,10.0,53,0.00,,---,0.00,914.00,VWS V14.00,2013-06-25 19:43:00,
2013-06-25 14:47:00,92.5,72.9,29.88,SSE,154,5.0,10.0,53,0.00,,---,0.00,856.00,VWS V14.00,2013-06-25 19:47:00,
2013-06-25 14:51:00,92.4,72.8,29.88,SSE,150,9.0,10.0,53,0.00,,---,0.00,821.00,VWS V14.00,2013-06-25 19:51:00,
2013-06-25 14:55:00,92.3,72.7,29.88,SSW,194,11.0,11.0,53,0.00,,---,0.00,831.00,VWS V14.00,2013-06-25 19:55:00,
2013-06-25 14:59:00,92.5,71.8,29.88,SSE,166,6.0,11.0,51,0.00,,---,0.00,886.00,VWS V14.00,2013-06-25 19:59:00,
2013-06-25 15:00:00,92.6,71.8,29.88,SSE,157,5.0,11.0,51,0.00,,---,0.00,879.00,VWS V14.00,2013-06-25 20:00:00,
2013-06-25 15:03:00,92.8,72.0,29.88,South,186,3.0,7.0,51,0.00,,---,0.00,860.00,VWS V14.00,2013-06-25 20:03:00,
2013-06-25 15:07:00,92.8,73.2,29.88,SSE,161,2.0,10.0,53,0.00,,---,0.00,807.00,VWS V14.00,2013-06-25 20:07:00,
2013-06-25 15:11:00,92.9,72.7,29.88,South,174,11.0,11.0,52,0.00,,---,0.00,738.00,VWS V14.00,2013-06-25 20:11:00,
2013-06-25 15:15:00,93.0,71.6,29.87,SSW,213,4.0,11.0,50,0.00,,---,0.00,763.00,VWS V14.00,2013-06-25 20:15:00,
2013-06-25 15:19:00,93.1,72.9,29.87,SSE,165,3.0,11.0,52,0.00,,---,0.00,675.00,VWS V14.00,2013-06-25 20:19:00,
2013-06-25 15:23:00,92.8,72.0,29.87,SSE,166,6.0,11.0,51,0.00,,---,0.00,649.00,VWS V14.00,2013-06-25 20:23:00,
2013-06-25 15:27:00,92.9,72.7,29.87,SSW,197,5.0,11.0,52,0.00,,---,0.00,712.00,VWS V14.00,2013-06-25 20:27:00,
2013-06-25 15:30:00,93.1,71.7,29.86,SSE,160,6.0,11.0,50,0.00,,---,0.00,728.00,VWS V14.00,2013-06-25 20:30:00,
2013-06-25 15:31:00,93.1,71.1,29.86,South,186,5.0,9.0,49,0.00,,---,0.00,710.00,VWS V14.00,2013-06-25 20:31:00,
2013-06-25 15:35:00,93.3,71.9,29.86,SSE,159,6.0,9.0,50,0.00,,---,0.00,629.00,VWS V14.00,2013-06-25 20:35:00,
2013-06-25 15:39:00,93.3,71.3,29.86,South,179,3.0,9.0,49,0.00,,---,0.00,680.00,VWS V14.00,2013-06-25 20:39:00,
2013-06-25 15:43:00,93.4,70.8,29.86,South,176,5.0,13.0,48,0.00,,---,0.00,700.00,VWS V14.00,2013-06-25 20:43:00,
2013-06-25 15:47:00,93.3,70.7,29.86,SSE,163,4.0,13.0,48,0.00,,---,0.00,664.00,VWS V14.00,2013-06-25 20:47:00,
2013-06-25 15:51:00,93.3,70.7,29.86,SSW,194,2.0,13.0,48,0.00,,---,0.00,636.00,VWS V14.00,2013-06-25 20:51:00,
2013-06-25 15:55:00,93.0,72.2,29.86,SSE,167,4.0,13.0,51,0.00,,---,0.00,636.00,VWS V14.00,2013-06-25 20:55:00,
2013-06-25 15:59:00,93.2,71.8,29.86,SSE,158,4.0,13.0,50,0.00,,---,0.00,652.00,VWS V14.00,2013-06-25 20:59:00,
2013-06-25 16:00:00,93.2,71.8,29.86,SSW,193,6.0,13.0,50,0.00,,---,0.00,645.00,VWS V14.00,2013-06-25 21:00:00,
2013-06-25 16:03:00,93.3,71.3,29.86,South,177,6.0,8.0,49,0.00,,---,0.00,633.00,VWS V14.00,2013-06-25 21:03:00,
2013-06-25 16:07:00,93.2,73.0,29.86,South,177,6.0,8.0,52,0.00,,---,0.00,615.00,VWS V14.00,2013-06-25 21:07:00,
2013-06-25 16:11:00,93.2,71.2,29.86,SSE,161,4.0,9.0,49,0.00,,---,0.00,631.00,VWS V14.00,2013-06-25 21:11:00,
2013-06-25 16:16:00,93.3,72.5,29.85,SSE,152,10.0,10.0,51,0.00,,---,0.00,499.00,VWS V14.00,2013-06-25 21:16:00,
2013-06-25 16:20:00,92.6,71.8,29.85,SE,128,11.0,14.0,51,0.00,,---,0.00,575.00,VWS V14.00,2013-06-25 21:20:00,
2013-06-25 16:24:00,92.6,72.4,29.85,SE,142,8.0,14.0,52,0.00,,---,0.00,501.00,VWS V14.00,2013-06-25 21:24:00,
2013-06-25 16:28:00,92.4,72.2,29.85,SSE,152,5.0,14.0,52,0.00,,---,0.00,545.00,VWS V14.00,2013-06-25 21:28:00,
2013-06-25 16:30:00,92.4,72.8,29.85,SSE,161,6.0,14.0,53,0.00,,---,0.00,552.00,VWS V14.00,2013-06-25 21:30:00,
2013-06-25 16:32:00,92.4,72.2,29.85,SSE,157,6.0,6.0,52,0.00,,---,0.00,548.00,VWS V14.00,2013-06-25 21:32:00,
2013-06-25 16:36:00,92.7,72.5,29.85,SSE,147,10.0,10.0,52,0.00,,---,0.00,559.00,VWS V14.00,2013-06-25 21:36:00,
2013-06-25 16:40:00,92.9,72.1,29.85,SE,144,7.0,10.0,51,0.00,,---,0.00,506.00,VWS V14.00,2013-06-25 21:40:00,
2013-06-25 16:44:00,92.7,71.9,29.85,SSE,150,11.0,11.0,51,0.00,,---,0.00,550.00,VWS V14.00,2013-06-25 21:44:00,
2013-06-25 16:48:00,92.7,71.9,29.84,SSE,155,6.0,11.0,51,0.00,,---,0.00,540.00,VWS V14.00,2013-06-25 21:48:00,
2013-06-25 16:52:00,92.7,72.5,29.84,SSE,153,6.0,11.0,52,0.00,,---,0.00,526.00,VWS V14.00,2013-06-25 21:52:00,
2013-06-25 16:56:00,92.4,72.8,29.84,SE,134,4.0,11.0,53,0.00,,---,0.00,188.00,VWS V14.00,2013-06-25 21:56:00,
2013-06-25 17:00:00,91.9,71.8,29.84,South,169,7.0,11.0,52,0.00,,---,0.00,142.00,VWS V14.00,2013-06-25 22:00:00,
2013-06-25 17:04:00,92.0,73.0,29.84,South,170,4.0,7.0,54,0.00,,---,0.00,455.00,VWS V14.00,2013-06-25 22:04:00,
2013-06-25 17:08:00,92.3,73.3,29.84,South,172,2.0,7.0,54,0.00,,---,0.00,459.00,VWS V14.00,2013-06-25 22:08:00,
2013-06-25 17:12:00,92.4,73.3,29.84,SSE,150,2.0,7.0,54,0.00,,---,0.00,431.00,VWS V14.00,2013-06-25 22:12:00,
2013-06-25 17:16:00,92.6,71.3,29.83,SSE,161,10.0,10.0,50,0.00,,---,0.00,399.00,VWS V14.00,2013-06-25 22:16:00,
2013-06-25 17:20:00,92.5,71.2,29.83,SSE,164,5.0,10.0,50,0.00,,---,0.00,399.00,VWS V14.00,2013-06-25 22:20:00,
2013-06-25 17:24:00,92.3,71.6,29.83,SSE,155,4.0,10.0,51,0.00,,---,0.00,311.00,VWS V14.00,2013-06-25 22:24:00,
2013-06-25 17:28:00,92.1,69.6,29.83,SSE,164,6.0,10.0,48,0.00,,---,0.00,332.00,VWS V14.00,2013-06-25 22:28:00,
2013-06-25 17:30:00,92.2,70.3,29.82,SSE,165,6.0,10.0,49,0.00,,---,0.00,343.00,VWS V14.00,2013-06-25 22:30:00,
2013-06-25 17:32:00,92.2,72.1,29.82,South,186,4.0,7.0,52,0.00,,---,0.00,343.00,VWS V14.00,2013-06-25 22:32:00,
2013-06-25 17:36:00,92.1,72.0,29.82,SSE,167,4.0,7.0,52,0.00,,---,0.00,318.00,VWS V14.00,2013-06-25 22:36:00,
2013-06-25 17:40:00,92.1,71.4,29.82,South,177,3.0,7.0,51,0.00,,---,0.00,297.00,VWS V14.00,2013-06-25 22:40:00,
2013-06-25 17:44:00,91.9,72.3,29.82,SSE,161,6.0,7.0,53,0.00,,---,0.00,260.00,VWS V14.00,2013-06-25 22:44:00,
2013-06-25 17:48:00,91.9,70.6,29.82,SSE,149,9.0,11.0,50,0.00,,---,0.00,287.00,VWS V14.00,2013-06-25 22:48:00,
2013-06-25 17:52:00,91.9,70.0,29.82,South,169,7.0,11.0,49,0.00,,---,0.00,283.00,VWS V14.00,2013-06-25 22:52:00,
2013-06-25 17:56:00,91.9,71.2,29.82,SSE,162,5.0,11.0,51,0.00,,---,0.00,292.00,VWS V14.00,2013-06-25 22:56:00,
2013-06-25 18:00:00,91.8,71.1,29.81,SSE,161,5.0,11.0,51,0.00,,---,0.00,274.00,VWS V14.00,2013-06-25 23:00:00,
2013-06-25 18:04:00,91.7,71.6,29.81,SSE,167,5.0,9.0,52,0.00,,---,0.00,267.00,VWS V14.00,2013-06-25 23:04:00,
2013-06-25 18:08:00,91.7,71.0,29.81,SSE,153,6.0,10.0,51,0.00,,---,0.00,253.00,VWS V14.00,2013-06-25 23:08:00,
2013-06-25 18:13:00,91.6,72.1,29.81,SSE,161,6.0,10.0,53,0.00,,---,0.00,237.00,VWS V14.00,2013-06-25 23:13:00,
2013-06-25 18:17:00,91.5,71.4,29.81,SSE,159,7.0,10.0,52,0.00,,---,0.00,223.00,VWS V14.00,2013-06-25 23:17:00,
2013-06-25 18:21:00,91.3,71.2,29.81,SSE,163,5.0,10.0,52,0.00,,---,0.00,156.00,VWS V14.00,2013-06-25 23:21:00,
2013-06-25 18:25:00,91.3,70.7,29.81,SSE,160,6.0,10.0,51,0.00,,---,0.00,158.00,VWS V14.00,2013-06-25 23:25:00,
2013-06-25 18:29:00,91.2,71.1,29.81,SSE,152,6.0,10.0,52,0.00,,---,0.00,104.00,VWS V14.00,2013-06-25 23:29:00,
2013-06-25 18:30:00,91.1,71.0,29.81,SE,138,9.0,10.0,52,0.00,,---,0.00,97.00,VWS V14.00,2013-06-25 23:30:00,
2013-06-25 18:33:00,90.8,71.9,29.81,SSE,158,2.0,9.0,54,0.00,,---,0.00,88.00,VWS V14.00,2013-06-25 23:33:00,
2013-06-25 18:37:00,90.5,71.1,29.81,SSE,165,5.0,9.0,53,0.00,,---,0.00,113.00,VWS V14.00,2013-06-25 23:37:00,
2013-06-25 18:41:00,90.5,71.6,29.81,SSE,157,3.0,9.0,54,0.00,,---,0.00,120.00,VWS V14.00,2013-06-25 23:41:00,
2013-06-25 18:45:00,90.4,71.5,29.81,SSE,158,2.0,9.0,54,0.00,,---,0.00,91.00,VWS V14.00,2013-06-25 23:45:00,
2013-06-25 18:49:00,90.1,71.2,29.81,SSE,147,3.0,9.0,54,0.00,,---,0.00,63.00,VWS V14.00,2013-06-25 23:49:00,
2013-06-25 18:53:00,89.9,71.6,29.81,South,176,5.0,9.0,55,0.00,,---,0.00,60.00,VWS V14.00,2013-06-25 23:53:00,
2013-06-25 18:57:00,89.6,72.9,29.81,SSE,165,5.0,9.0,58,0.00,,---,0.00,76.00,VWS V14.00,2013-06-25 23:57:00,
2013-06-25 19:00:00,89.5,72.8,29.81,SSE,155,3.0,9.0,58,0.00,,---,0.00,79.00,VWS V14.00,2013-06-26 00:00:00,
2013-06-25 19:01:00,89.4,73.2,29.81,SSE,159,2.0,3.0,59,0.00,,---,0.00,86.00,VWS V14.00,2013-06-26 00:01:00,
2013-06-25 19:05:00,89.2,73.0,29.81,SSE,153,2.0,5.0,59,0.00,,---,0.00,83.00,VWS V14.00,2013-06-26 00:05:00,
2013-06-25 19:09:00,89.2,72.5,29.81,SSE,157,4.0,5.0,58,0.00,,---,0.00,81.00,VWS V14.00,2013-06-26 00:09:00,
2013-06-25 19:13:00,89.3,73.1,29.81,SE,146,4.0,5.0,59,0.00,,---,0.00,74.00,VWS V14.00,2013-06-26 00:13:00,
2013-06-25 19:17:00,89.1,72.9,29.81,SSE,161,5.0,7.0,59,0.00,,---,0.00,58.00,VWS V14.00,2013-06-26 00:17:00,
2013-06-25 19:21:00,88.9,72.7,29.81,SSE,157,3.0,11.0,59,0.00,,---,0.00,51.00,VWS V14.00,2013-06-26 00:21:00,
2013-06-25 19:25:00,88.7,73.5,29.81,SSE,159,4.0,11.0,61,0.00,,---,0.00,46.00,VWS V14.00,2013-06-26 00:25:00,
2013-06-25 19:29:00,88.6,72.9,29.81,SSE,155,4.0,11.0,60,0.00,,---,0.00,37.00,VWS V14.00,2013-06-26 00:29:00,
2013-06-25 19:30:00,88.5,72.8,29.81,SSE,162,7.0,11.0,60,0.00,,---,0.00,37.00,VWS V14.00,2013-06-26 00:30:00,
2013-06-25 19:33:00,88.5,72.8,29.81,WSW,238,2.0,7.0,60,0.00,,---,0.00,33.00,VWS V14.00,2013-06-26 00:33:00,
2013-06-25 19:37:00,88.3,73.6,29.81,SSE,168,4.0,7.0,62,0.00,,---,0.00,32.00,VWS V14.00,2013-06-26 00:37:00,
2013-06-25 19:41:00,88.1,72.5,29.81,SE,140,4.0,7.0,60,0.00,,---,0.00,30.00,VWS V14.00,2013-06-26 00:41:00,
2013-06-25 19:46:00,88.1,73.0,29.81,SSE,164,3.0,7.0,61,0.00,,---,0.00,30.00,VWS V14.00,2013-06-26 00:46:00,
2013-06-25 19:50:00,88.0,72.9,29.81,SSE,167,4.0,7.0,61,0.00,,---,0.00,25.00,VWS V14.00,2013-06-26 00:50:00,
2013-06-25 19:54:00,87.8,73.2,29.81,SE,142,6.0,7.0,62,0.00,,---,0.00,19.00,VWS V14.00,2013-06-26 00:54:00,
2013-06-25 19:58:00,87.5,72.9,29.81,SSE,148,3.0,7.0,62,0.00,,---,0.00,14.00,VWS V14.00,2013-06-26 00:58:00,
2013-06-25 20:00:00,87.3,73.2,29.80,SSE,150,4.0,7.0,63,0.00,,---,0.00,11.00,VWS V14.00,2013-06-26 01:00:00,
2013-06-25 20:02:00,87.2,72.6,29.80,SSE,150,3.0,4.0,62,0.00,,---,0.00,7.00,VWS V14.00,2013-06-26 01:02:00,
2013-06-25 20:06:00,87.2,73.1,29.80,SSE,150,3.0,6.0,63,0.00,,---,0.00,0.00,VWS V14.00,2013-06-26 01:06:00,
2013-06-25 20:10:00,87.1,72.5,29.80,SSE,154,4.0,7.0,62,0.00,,---,0.00,0.00,VWS V14.00,2013-06-26 01:10:00,
2013-06-25 20:14:00,87.1,72.5,29.80,SSE,154,6.0,8.0,62,0.00,,---,0.00,0.00,VWS V14.00,2013-06-26 01:14:00,
2013-06-25 20:18:00,87.0,72.9,29.80,SE,146,3.0,8.0,63,0.00,,---,0.00,0.00,VWS V14.00,2013-06-26 01:18:00,
2013-06-25 20:22:00,86.9,72.3,29.80,SSE,156,5.0,8.0,62,0.00,,---,0.00,0.00,VWS V14.00,2013-06-26 01:22:00,
2013-06-25 20:26:00,86.9,72.3,29.80,SSE,165,4.0,9.0,62,0.00,,---,0.00,0.00,VWS V14.00,2013-06-26 01:26:00,
2013-06-25 20:30:00,87.0,72.4,29.80,SE,145,2.0,9.0,62,0.00,,---,0.00,0.00,VWS V14.00,2013-06-26 01:30:00,
2013-06-25 20:34:00,86.8,72.2,29.80,SSE,151,3.0,6.0,62,0.00,,---,0.00,0.00,VWS V14.00,2013-06-26 01:34:00,
2013-06-25 20:38:00,86.9,72.3,29.80,SE,142,4.0,6.0,62,0.00,,---,0.00,0.00,VWS V14.00,2013-06-26 01:38:00,
2013-06-25 20:42:00,86.7,72.6,29.80,SSE,154,4.0,6.0,63,0.00,,---,0.00,0.00,VWS V14.00,2013-06-26 01:42:00,
2013-06-25 20:46:00,86.7,72.1,29.81,SSE,149,5.0,6.0,62,0.00,,---,0.00,0.00,VWS V14.00,2013-06-26 01:46:00,
2013-06-25 20:50:00,86.6,72.0,29.81,SE,144,5.0,6.0,62,0.00,,---,0.00,0.00,VWS V14.00,2013-06-26 01:50:00,
2013-06-25 20:54:00,86.4,72.3,29.81,SE,144,5.0,6.0,63,0.00,,---,0.00,0.00,VWS V14.00,2013-06-26 01:54:00,
2013-06-25 20:58:00,86.4,72.3,29.81,SSE,155,2.0,8.0,63,0.00,,---,0.00,0.00,VWS V14.00,2013-06-26 01:58:00,
2013-06-25 21:00:00,86.4,72.3,29.81,SE,133,5.0,8.0,63,0.00,,---,0.00,0.00,VWS V14.00,2013-06-26 02:00:00,
2013-06-25 21:02:00,86.4,72.3,29.81,SSE,159,4.0,7.0,63,0.00,,---,0.00,0.00,VWS V14.00,2013-06-26 02:02:00,
2013-06-25 21:06:00,86.5,72.4,29.81,SSE,156,5.0,7.0,63,0.00,,---,0.00,0.00,VWS V14.00,2013-06-26 02:06:00,
2013-06-25 21:10:00,86.4,72.3,29.81,SSE,160,5.0,7.0,63,0.00,,---,0.00,0.00,VWS V14.00,2013-06-26 02:10:00,
2013-06-25 21:14:00,86.3,71.8,29.81,SSE,164,3.0,7.0,62,0.00,,---,0.00,0.00,VWS V14.00,2013-06-26 02:14:00,
2013-06-25 21:18:00,86.3,72.2,29.81,SSE,161,4.0,7.0,63,0.00,,---,0.00,0.00,VWS V14.00,2013-06-26 02:18:00,
2013-06-25 21:22:00,86.1,73.0,29.81,SSE,155,5.0,7.0,65,0.00,,---,0.00,0.00,VWS V14.00,2013-06-26 02:22:00,
2013-06-25 21:26:00,86.0,71.9,29.81,SSE,159,5.0,7.0,63,0.00,,---,0.00,0.00,VWS V14.00,2013-06-26 02:26:00,
2013-06-25 21:30:00,86.0,71.9,29.81,SSE,151,5.0,7.0,63,0.00,,---,0.00,0.00,VWS V14.00,2013-06-26 02:30:00,
2013-06-25 21:35:00,85.9,72.3,29.81,SSE,148,4.0,6.0,64,0.00,,---,0.00,0.00,VWS V14.00,2013-06-26 02:35:00,
2013-06-25 21:39:00,85.9,72.3,29.81,SSE,155,7.0,7.0,64,0.00,,---,0.00,0.00,VWS V14.00,2013-06-26 02:39:00,
2013-06-25 21:43:00,85.9,72.8,29.81,SSE,152,6.0,7.0,65,0.00,,---,0.00,0.00,VWS V14.00,2013-06-26 02:43:00,
2013-06-25 21:47:00,85.8,72.7,29.82,SE,142,9.0,9.0,65,0.00,,---,0.00,0.00,VWS V14.00,2013-06-26 02:47:00,
2013-06-25 21:51:00,85.8,72.7,29.82,SSE,149,5.0,9.0,65,0.00,,---,0.00,0.00,VWS V14.00,2013-06-26 02:51:00,
2013-06-25 21:55:00,85.8,72.7,29.82,SSE,165,4.0,9.0,65,0.00,,---,0.00,0.00,VWS V14.00,2013-06-26 02:55:00,
2013-06-25 21:59:00,85.7,72.6,29.82,SSE,157,4.0,9.0,65,0.00,,---,0.00,0.00,VWS V14.00,2013-06-26 02:59:00,
2013-06-25 22:00:00,85.7,73.0,29.82,SSE,165,6.0,9.0,66,0.00,,---,0.00,0.00,VWS V14.00,2013-06-26 03:00:00,
2013-06-25 22:03:00,85.6,73.4,29.82,SSE,162,2.0,6.0,67,0.00,,---,0.00,0.00,VWS V14.00,2013-06-26 03:03:00,
2013-06-25 22:07:00,85.5,73.7,29.82,SSE,153,6.0,7.0,68,0.00,,---,0.00,0.00,VWS V14.00,2013-06-26 03:07:00,
2013-06-25 22:11:00,85.4,73.2,29.82,SSE,162,4.0,7.0,67,0.00,,---,0.00,0.00,VWS V14.00,2013-06-26 03:11:00,
2013-06-25 22:15:00,85.2,73.4,29.82,SSE,159,4.0,7.0,68,0.00,,---,0.00,0.00,VWS V14.00,2013-06-26 03:15:00,
2013-06-25 22:19:00,85.2,73.4,29.82,SSE,166,6.0,7.0,68,0.00,,---,0.00,0.00,VWS V14.00,2013-06-26 03:19:00,
2013-06-25 22:23:00,85.2,73.4,29.82,SE,142,5.0,7.0,68,0.00,,---,0.00,0.00,VWS V14.00,2013-06-26 03:23:00,
2013-06-25 22:27:00,85.2,73.9,29.82,SSE,168,3.0,7.0,69,0.00,,---,0.00,0.00,VWS V14.00,2013-06-26 03:27:00,
2013-06-25 22:30:00,85.1,73.8,29.83,South,171,5.0,7.0,69,0.00,,---,0.00,0.00,VWS V14.00,2013-06-26 03:30:00,
2013-06-25 22:31:00,85.1,73.8,29.83,SSE,163,4.0,5.0,69,0.00,,---,0.00,0.00,VWS V14.00,2013-06-26 03:31:00,
2013-06-25 22:35:00,85.0,74.1,29.83,SSE,158,5.0,6.0,70,0.00,,---,0.00,0.00,VWS V14.00,2013-06-26 03:35:00,
2013-06-25 22:39:00,84.9,73.6,29.83,SSE,163,4.0,6.0,69,0.00,,---,0.00,0.00,VWS V14.00,2013-06-26 03:39:00,
2013-06-25 22:43:00,84.9,73.6,29.83,South,173,4.0,7.0,69,0.00,,---,0.00,0.00,VWS V14.00,2013-06-26 03:43:00,
2013-06-25 22:47:00,84.9,74.0,29.83,SSE,159,4.0,7.0,70,0.00,,---,0.00,0.00,VWS V14.00,2013-06-26 03:47:00,
2013-06-25 22:51:00,84.8,74.4,29.83,South,171,3.0,7.0,71,0.00,,---,0.00,0.00,VWS V14.00,2013-06-26 03:51:00,
2013-06-25 22:55:00,84.6,74.2,29.83,SSE,163,4.0,7.0,71,0.00,,---,0.00,0.00,VWS V14.00,2013-06-26 03:55:00,
2013-06-25 22:59:00,84.5,74.5,29.83,SSE,159,4.0,7.0,72,0.00,,---,0.00,0.00,VWS V14.00,2013-06-26 03:59:00,
2013-06-25 23:00:00,84.5,74.5,29.83,SSE,154,5.0,7.0,72,0.00,,---,0.00,0.00,VWS V14.00,2013-06-26 04:00:00,
2013-06-25 23:03:00,84.4,74.0,29.83,SSE,162,5.0,6.0,71,0.00,,---,0.00,0.00,VWS V14.00,2013-06-26 04:03:00,
2013-06-25 23:07:00,84.4,74.0,29.83,South,176,4.0,6.0,71,0.00,,---,0.00,0.00,VWS V14.00,2013-06-26 04:07:00,
2013-06-25 23:11:00,84.3,74.7,29.83,South,171,3.0,7.0,73,0.00,,---,0.00,0.00,VWS V14.00,2013-06-26 04:11:00,
2013-06-25 23:15:00,84.2,74.2,29.83,South,169,4.0,7.0,72,0.00,,---,0.00,0.00,VWS V14.00,2013-06-26 04:15:00,
2013-06-25 23:19:00,84.1,74.5,29.83,SSE,155,1.0,7.0,73,0.00,,---,0.00,0.00,VWS V14.00,2013-06-26 04:19:00,
2013-06-25 23:24:00,84.0,74.4,29.83,SSE,161,6.0,7.0,73,0.00,,---,0.00,0.00,VWS V14.00,2013-06-26 04:24:00,
2013-06-25 23:28:00,83.9,74.3,29.83,SSE,164,4.0,7.0,73,0.00,,---,0.00,0.00,VWS V14.00,2013-06-26 04:28:00,
2013-06-25 23:30:00,83.9,74.3,29.83,SSE,161,6.0,7.0,73,0.00,,---,0.00,0.00,VWS V14.00,2013-06-26 04:30:00,
2013-06-25 23:32:00,83.9,74.3,29.83,SSE,161,6.0,6.0,73,0.00,,---,0.00,0.00,VWS V14.00,2013-06-26 04:32:00,
2013-06-25 23:36:00,83.8,74.6,29.83,South,190,2.0,6.0,74,0.00,,---,0.00,0.00,VWS V14.00,2013-06-26 04:36:00,
2013-06-25 23:40:00,83.6,74.4,29.83,SSE,162,6.0,7.0,74,0.00,,---,0.00,0.00,VWS V14.00,2013-06-26 04:40:00,
2013-06-25 23:44:00,83.6,74.4,29.83,South,169,5.0,7.0,74,0.00,,---,0.00,0.00,VWS V14.00,2013-06-26 04:44:00,
2013-06-25 23:48:00,83.4,74.7,29.83,South,170,5.0,7.0,75,0.00,,---,0.00,0.00,VWS V14.00,2013-06-26 04:48:00,
2013-06-25 23:52:00,83.4,74.7,29.83,SSE,160,5.0,9.0,75,0.00,,---,0.00,0.00,VWS V14.00,2013-06-26 04:52:00,
2013-06-25 23:56:00,83.4,74.7,29.83,SSE,155,7.0,9.0,75,0.00,,---,0.00,0.00,VWS V14.00,2013-06-26 04:56:00,